Home   Weather   Waterbury   Past weeks

Flag for USA Past Weather in Waterbury, Connecticut, USA — Yesterday and Last 2 Weeks

Now
45 °F

Clear.


Feels Like: 45 °F
Forecast: 41 / 69 °F
Wind: No wind

Location: Oxford

Current Time: Oct 18, 2017 at 12:38:54 am

Latest Report: Oct 17, 2017 at 11:51 pm


Visibility: 10 mi

Pressure: 30.31 "Hg

Humidity: 80%

Dew Point: 39 °F

Location of WaterburyLocation

Past Weather in Waterbury — Graph

°F

Waterbury Temperature Yesterday

Maximum temperature yesterday: 57 °F (at 2:51 pm)
Minimum temperature yesterday: 34 °F (at 2:51 am)
Average temperature yesterday: 45 °F

High & Low Weather Summary for the Past Weeks

 TemperatureHumidityPressure
High78 °F (Oct 5, 12:51 pm)100% (Oct 3, 2:51 am)30.69 "Hg (Oct 3, 2:51 am)
Low34 °F (Oct 17, 2:51 am)36% (Oct 17, 3:51 pm)29.81 "Hg (Oct 16, 1:17 am)
Average61 °F82%30.19 "Hg
* Reported Oct 2 10:51 pm — Oct 17 10:51 pm, Waterbury. Weather by CustomWeather, © 2017

Note: Actual official high and low records may vary slightly from our data, if they occured in-between our weather recording intervals... More about our weather records

Advertising

Waterbury Weather History for the Previous 24 Hours

Scroll right to see more
 ConditionsComfort  
Time TempWeatherWind HumidityBarometerVisibility
10:51 pm
Tue, Oct 17
46 °FClear.5 mph77%30.32 "Hg10 mi
9:51 pm46 °FClear.3 mph71%30.32 "Hg10 mi
8:51 pm46 °FClear.5 mph66%30.32 "Hg10 mi
7:51 pm47 °FClear.3 mph66%30.31 "Hg10 mi
6:51 pm48 °FClear.3 mph61%30.30 "Hg10 mi
5:51 pm53 °FSunny.3 mph43%30.28 "Hg10 mi
4:51 pm56 °FSunny.3 mph36%30.28 "Hg10 mi
3:51 pm56 °FSunny.5 mph36%30.29 "Hg10 mi
2:51 pm57 °FSunny.5 mph39%30.30 "Hg10 mi
1:51 pm54 °FSunny.3 mph40%30.31 "Hg10 mi
12:51 pm52 °FSunny.7 mph43%30.34 "Hg10 mi
11:51 am48 °FSunny.No wind46%30.35 "Hg10 mi
10:51 am47 °FSunny.8 mph50%30.36 "Hg10 mi
9:51 am44 °FSunny.5 mph58%30.37 "Hg10 mi
8:51 am40 °FSunny.5 mph73%30.38 "Hg10 mi
7:51 am35 °FSunny.7 mph88%30.36 "Hg10 mi
6:51 am35 °FClear.7 mph88%30.34 "Hg10 mi
5:51 am36 °FClear.5 mph85%30.32 "Hg10 mi
4:51 am35 °FClear.9 mph88%30.29 "Hg10 mi
3:51 am36 °FClear.9 mph85%30.28 "Hg10 mi
2:51 am34 °FClear.7 mph92%30.28 "Hg10 mi
1:51 am38 °FClear.6 mph86%30.26 "Hg10 mi
12:51 am40 °FClear.6 mph80%30.25 "Hg10 mi
Weather by CustomWeather, © 2017

See weather overview